Weather Roundup
Issued by NWS

Home | Current Version | Previous Version | Text Only | Print | Product List | Glossary On
Versions: 1 2 3 4 5 6 7 8 9 10 11 12 13 14 15 16 17 18 19 20 21 22 23 24 25 26 27 28 29 30 31 32 33 34 35 36 37 38 39 40 41 42 43 44 45 46 47 48 49 50
499
NZUS93 KARX 211810
HRRWXR

CURRENT HOURLY OBSERVATIONS ACROSS
MUCH OF THE UPPER MISSISSIPPI VALLEY
NATIONAL WEATHER SERVICE LA CROSSE WI
100 PM CDT SAT APR 21 2018


...SOUTHEAST MINNESOTA...


CITY           SKY/WX    TMP DP  RH WIND       PRES   REMARKS
ROCHESTER      CLOUDY    48  35  60 S9        30.39F
ROCHESTER/MAYO MOCLDY    54  30  40 SE6       30.39F
WINONA         CLOUDY    54  34  47 E3        30.38F
AUSTIN         CLOUDY    43  34  70 CALM      30.39F
ALBERT LEA     PTSUNNY   46  28  49 S6        30.38F
DODGE CENTER   FAIR      50  36  57 SE6       30.39S
PRESTON        CLOUDY    46  33  60 S8        30.41S
OWATONNA       PTSUNNY   50  37  62 NE6       30.39F
FARIBAULT      NOT AVBL
$$

...ELSEWHERE IN MINNESOTA...


CITY           SKY/WX    TMP DP  RH WIND       PRES   REMARKS
MINNEAPOLIS    FAIR      55  14  19 CALM      30.39F
INTNL FALLS    FAIR      58  24  27 W8        30.33F
DULUTH         FAIR      54  24  31 CALM      30.36F
RED WING       FAIR      55  21  26 S5        30.38F
REDWOOD FALLS  MOSUNNY   49  32  52 SE5       30.38F
MANKATO        FAIR      52  34  50 SE7       30.40F HAZE
WORTHINGTON    CLOUDY    42  35  76 NE8       30.37F
FAIRMONT       NOT AVBL
$$

...SOUTHWEST WISCONSIN...


CITY           SKY/WX    TMP DP  RH WIND       PRES   REMARKS
LA CROSSE      FAIR      56  33  42 S16       30.41F
PRAIRIE DU CHI CLOUDY    50  37  59 NE3       30.43S
BOSCOBEL       CLOUDY    53  36  52 CALM      30.43F
LONE ROCK      CLOUDY    52  33  48 W7        30.44S
PLATTEVILLE    CLOUDY    50  38  63 E9        30.43F
FORT MC COY    FAIR      56  30  37 SW5       30.42F
CAMP DOUGLAS   PTSUNNY   55  27  33 W8        30.41F
MAUSTON-NEW LI FAIR      55  26  33 S8        30.41F
VIROQUA        CLOUDY    46  37  70 S5        30.43S
WIS DELLS      FAIR      51  25  36 SW9       30.42S
$$

...ELSEWHERE IN WISCONSIN...


CITY           SKY/WX    TMP DP  RH WIND       PRES   REMARKS
MILWAUKEE      PTSUNNY   53  20  27 S3        30.44F
MADISON        CLOUDY    52  27  38 SW8       30.43S
GREEN BAY      FAIR      50  24  36 S8        30.42F
EAU CLAIRE     FAIR      55  28  35 SW6       30.38F
BLACK RVR FLS  FAIR      57  27  31 SW6       30.40F
MEDFORD        FAIR      49  20  32 S5        30.39F
WAUSAU         FAIR      53  23  31 SW3       30.37F
WIS RAPIDS     FAIR      53  24  32 NW6       30.41F
MARSHFIELD     FAIR      52  23  32 NW5       30.39F
RICE LAKE      FAIR      51  20  30 W5        30.40F
$$

...NORTHEAST IOWA...


CITY           SKY/WX    TMP DP  RH WIND       PRES   REMARKS
WATERLOO       PTSUNNY   54  29  38 E14       30.37F
DUBUQUE        PTSUNNY   52  34  50 E10       30.41F
DECORAH        CLOUDY    48  37  66 SE7       30.40S
MASON CITY     CLOUDY    48  37  65 NE9       30.38F
CHARLES CITY   FAIR      55  36  47 VRB7G13   30.38F
OELWEIN        FAIR      54  32  43 E10G17    30.39F
$$

...ELSEWHERE IN IOWA...


CITY           SKY/WX    TMP DP  RH WIND       PRES   REMARKS
DES MOINES     CLOUDY    55  26  32 E9        30.32F
IOWA CITY      FAIR      60  25  26 E13G21    30.37F
FORT DODGE     CLOUDY    56  36  47 E10       30.34F
MARSHALLTOWN   CLOUDY    57  28  33 SE9       30.34F
CEDAR RAPIDS   FAIR      58  28  32 E10       30.36F
$$

...NORTHERN ILLINOIS...


CITY           SKY/WX    TMP DP  RH WIND       PRES   REMARKS
CHICAGO-OHARE  CLOUDY    52  25  35 VRB3      30.41F
CHICAGO-MIDWAY CLOUDY    48  26  42 NE9       30.42F
MOLINE         FAIR      57  30  35 E10       30.38F
ROCKFORD       CLOUDY    53  38  56 NE5       30.45S
PEORIA         FAIR      60  27  28 E10       30.37F
$$

NOTE: "FAIR" INDICATES FEW OR NO CLOUDS BELOW 12,000 FEET WITH NO
SIGNIFICANT WEATHER AND/OR OBSTRUCTIONS TO VISIBILITY. WIND
SPEEDS ARE IN MILES-PER-HOUR.




USA.gov is the U.S. government's official web portal to all federal, state and local government web resources and services.